owner,sensor,date,latitude,longitude,vertical_datum,sea_water_temperature,qcFlag 
NERRS,ioos:station:NOAA.NERRS:gndpcwq:1,2015-07-01T00:00:00Z,30.3486,-88.4185,0.0,30.2,2 
NERRS,ioos:station:NOAA.NERRS:gndpcwq:1,2015-07-01T01:00:00Z,30.3486,-88.4185,0.0,29.6,2 
NERRS,ioos:station:NOAA.NERRS:gndpcwq:1,2015-07-01T02:00:00Z,30.3486,-88.4185,0.0,29.3,2 
NERRS,ioos:station:NOAA.NERRS:gndpcwq:1,2015-07-01T03:00:00Z,30.3486,-88.4185,0.0,29.1,2 
NERRS,ioos:station:NOAA.NERRS:gndpcwq:1,2015-07-01T04:00:00Z,30.3486,-88.4185,0.0,29.1,2 
NERRS,ioos:station:NOAA.NERRS:gndpcwq:1,2015-07-01T05:00:00Z,30.3486,-88.4185,0.0,28.9,2 
NERRS,ioos:station:NOAA.NERRS:gndpcwq:1,2015-07-01T06:00:00Z,30.3486,-88.4185,0.0,28.8,2 
NERRS,ioos:station:NOAA.NERRS:gndpcwq:1,2015-07-01T07:00:00Z,30.3486,-88.4185,0.0,28.7,2 
NERRS,ioos:station:NOAA.NERRS:gndpcwq:1,2015-07-01T08:00:00Z,30.3486,-88.4185,0.0,28.5,2 
NERRS,ioos:station:NOAA.NERRS:gndpcwq:1,2015-07-01T09:00:00Z,30.3486,-88.4185,0.0,28.6,2 
NERRS,ioos:station:NOAA.NERRS:gndpcwq:1,2015-07-01T10:00:00Z,30.3486,-88.4185,0.0,28.6,2 
NERRS,ioos:station:NOAA.NERRS:gndpcwq:1,2015-07-01T11:00:00Z,30.3486,-88.4185,0.0,28.5,2 
NERRS,ioos:station:NOAA.NERRS:gndpcwq:1,2015-07-01T12:00:00Z,30.3486,-88.4185,0.0,28.0,2 
NERRS,ioos:station:NOAA.NERRS:gndpcwq:1,2015-07-01T13:00:00Z,30.3486,-88.4185,0.0,28.2,2 
NERRS,ioos:station:NOAA.NERRS:gndpcwq:1,2015-07-01T14:00:00Z,30.3486,-88.4185,0.0,28.5,2 
NERRS,ioos:station:NOAA.NERRS:gndpcwq:1,2015-07-01T15:00:00Z,30.3486,-88.4185,0.0,28.5,2 
NERRS,ioos:station:NOAA.NERRS:gndpcwq:1,2015-07-01T16:00:00Z,30.3486,-88.4185,0.0,28.8,2 
NERRS,ioos:station:NOAA.NERRS:gndpcwq:1,2015-07-01T17:00:00Z,30.3486,-88.4185,0.0,29.5,2 
NERRS,ioos:station:NOAA.NERRS:gndpcwq:1,2015-07-01T18:00:00Z,30.3486,-88.4185,0.0,29.5,2 
NERRS,ioos:station:NOAA.NERRS:gndpcwq:1,2015-07-01T19:00:00Z,30.3486,-88.4185,0.0,30.2,2 
NERRS,ioos:station:NOAA.NERRS:gndpcwq:1,2015-07-01T20:00:00Z,30.3486,-88.4185,0.0,30.7,2 
NERRS,ioos:station:NOAA.NERRS:gndpcwq:1,2015-07-01T21:00:00Z,30.3486,-88.4185,0.0,30.5,2 
NERRS,ioos:station:NOAA.NERRS:gndpcwq:1,2015-07-01T22:00:00Z,30.3486,-88.4185,0.0,30.9,2 
NERRS,ioos:station:NOAA.NERRS:gndpcwq:1,2015-07-01T23:00:00Z,30.3486,-88.4185,0.0,30.7,2 
NERRS,ioos:station:NOAA.NERRS:gndpcwq:1,2015-07-02T00:00:00Z,30.3486,-88.4185,0.0,30.6,2 
NERRS,ioos:station:NOAA.NERRS:gndpcwq:1,2015-07-02T01:00:00Z,30.3486,-88.4185,0.0,30.1,2 
NERRS,ioos:station:NOAA.NERRS:gndpcwq:1,2015-07-02T02:00:00Z,30.3486,-88.4185,0.0,30.2,2 
NERRS,ioos:station:NOAA.NERRS:gndpcwq:1,2015-07-02T03:00:00Z,30.3486,-88.4185,0.0,30.3,2 
NERRS,ioos:station:NOAA.NERRS:gndpcwq:1,2015-07-02T04:00:00Z,30.3486,-88.4185,0.0,30.0,2 
NERRS,ioos:station:NOAA.NERRS:gndpcwq:1,2015-07-02T05:00:00Z,30.3486,-88.4185,0.0,29.0,2 
NERRS,ioos:station:NOAA.NERRS:gndpcwq:1,2015-07-02T06:00:00Z,30.3486,-88.4185,0.0,29.0,2 
NERRS,ioos:station:NOAA.NERRS:gndpcwq:1,2015-07-02T07:00:00Z,30.3486,-88.4185,0.0,29.0,2 
NERRS,ioos:station:NOAA.NERRS:gndpcwq:1,2015-07-02T08:00:00Z,30.3486,-88.4185,0.0,28.9,2 
NERRS,ioos:station:NOAA.NERRS:gndpcwq:1,2015-07-02T09:00:00Z,30.3486,-88.4185,0.0,28.7,2 
NERRS,ioos:station:NOAA.NERRS:gndpcwq:1,2015-07-02T10:00:00Z,30.3486,-88.4185,0.0,28.7,2 
NERRS,ioos:station:NOAA.NERRS:gndpcwq:1,2015-07-02T11:00:00Z,30.3486,-88.4185,0.0,28.2,2 
NERRS,ioos:station:NOAA.NERRS:gndpcwq:1,2015-07-02T12:00:00Z,30.3486,-88.4185,0.0,28.2,2 
NERRS,ioos:station:NOAA.NERRS:gndpcwq:1,2015-07-02T13:00:00Z,30.3486,-88.4185,0.0,28.1,2 
NERRS,ioos:station:NOAA.NERRS:gndpcwq:1,2015-07-02T15:00:00Z,30.3486,-88.4185,0.0,28.0,2 
NERRS,ioos:station:NOAA.NERRS:gndpcwq:1,2015-07-02T16:00:00Z,30.3486,-88.4185,0.0,28.2,2 
NERRS,ioos:station:NOAA.NERRS:gndpcwq:1,2015-07-02T17:00:00Z,30.3486,-88.4185,0.0,28.7,2 
NERRS,ioos:station:NOAA.NERRS:gndpcwq:1,2015-07-02T18:00:00Z,30.3486,-88.4185,0.0,28.8,2 
NERRS,ioos:station:NOAA.NERRS:gndpcwq:1,2015-07-02T19:00:00Z,30.3486,-88.4185,0.0,29.5,2 
NERRS,ioos:station:NOAA.NERRS:gndpcwq:1,2015-07-02T20:00:00Z,30.3486,-88.4185,0.0,29.9,2 
NERRS,ioos:station:NOAA.NERRS:gndpcwq:1,2015-07-03T12:00:00Z,30.3486,-88.4185,0.0,28.4,2 
NERRS,ioos:station:NOAA.NERRS:gndpcwq:1,2015-07-03T13:00:00Z,30.3486,-88.4185,0.0,28.5,2 
NERRS,ioos:station:NOAA.NERRS:gndpcwq:1,2015-07-03T14:00:00Z,30.3486,-88.4185,0.0,28.6,2 
NERRS,ioos:station:NOAA.NERRS:gndpcwq:1,2015-07-03T15:00:00Z,30.3486,-88.4185,0.0,28.9,2 
NERRS,ioos:station:NOAA.NERRS:gndpcwq:1,2015-07-03T16:00:00Z,30.3486,-88.4185,0.0,29.0,2 
NERRS,ioos:station:NOAA.NERRS:gndpcwq:1,2015-07-03T17:00:00Z,30.3486,-88.4185,0.0,29.3,2 
NERRS,ioos:station:NOAA.NERRS:gndpcwq:1,2015-07-03T18:00:00Z,30.3486,-88.4185,0.0,29.5,2 
NERRS,ioos:station:NOAA.NERRS:gndpcwq:1,2015-07-03T19:00:00Z,30.3486,-88.4185,0.0,29.6,2 
NERRS,ioos:station:NOAA.NERRS:gndpcwq:1,2015-07-03T20:00:00Z,30.3486,-88.4185,0.0,29.6,2 
NERRS,ioos:station:NOAA.NERRS:gndpcwq:1,2015-07-03T21:00:00Z,30.3486,-88.4185,0.0,29.9,2 
NERRS,ioos:station:NOAA.NERRS:gndpcwq:1,2015-07-03T22:00:00Z,30.3486,-88.4185,0.0,30.7,2 
NERRS,ioos:station:NOAA.NERRS:gndpcwq:1,2015-07-03T23:00:00Z,30.3486,-88.4185,0.0,30.8,2 
NERRS,ioos:station:NOAA.NERRS:gndpcwq:1,2015-07-04T00:00:00Z,30.3486,-88.4185,0.0,30.7,2 
NERRS,ioos:station:NOAA.NERRS:gndpcwq:1,2015-07-04T01:00:00Z,30.3486,-88.4185,0.0,30.6,2 
NERRS,ioos:station:NOAA.NERRS:gndpcwq:1,2015-07-04T02:00:00Z,30.3486,-88.4185,0.0,30.4,2 
NERRS,ioos:station:NOAA.NERRS:gndpcwq:1,2015-07-04T03:00:00Z,30.3486,-88.4185,0.0,30.4,2 
NERRS,ioos:station:NOAA.NERRS:gndpcwq:1,2015-07-04T04:00:00Z,30.3486,-88.4185,0.0,30.1,2 
NERRS,ioos:station:NOAA.NERRS:gndpcwq:1,2015-07-04T05:00:00Z,30.3486,-88.4185,0.0,29.9,2 
NERRS,ioos:station:NOAA.NERRS:gndpcwq:1,2015-07-04T06:00:00Z,30.3486,-88.4185,0.0,29.7,2 
NERRS,ioos:station:NOAA.NERRS:gndpcwq:1,2015-07-04T07:00:00Z,30.3486,-88.4185,0.0,29.6,2 
NERRS,ioos:station:NOAA.NERRS:gndpcwq:1,2015-07-04T08:00:00Z,30.3486,-88.4185,0.0,29.5,2 
NERRS,ioos:station:NOAA.NERRS:gndpcwq:1,2015-07-04T09:00:00Z,30.3486,-88.4185,0.0,29.2,2 
NERRS,ioos:station:NOAA.NERRS:gndpcwq:1,2015-07-04T10:00:00Z,30.3486,-88.4185,0.0,29.1,2 
NERRS,ioos:station:NOAA.NERRS:gndpcwq:1,2015-07-04T11:00:00Z,30.3486,-88.4185,0.0,29.0,2 
NERRS,ioos:station:NOAA.NERRS:gndpcwq:1,2015-07-04T12:00:00Z,30.3486,-88.4185,0.0,29.0,2 
NERRS,ioos:station:NOAA.NERRS:gndpcwq:1,2015-07-04T13:00:00Z,30.3486,-88.4185,0.0,28.9,2 
NERRS,ioos:station:NOAA.NERRS:gndpcwq:1,2015-07-04T14:00:00Z,30.3486,-88.4185,0.0,29.0,2 
NERRS,ioos:station:NOAA.NERRS:gndpcwq:1,2015-07-04T15:00:00Z,30.3486,-88.4185,0.0,29.1,2 
NERRS,ioos:station:NOAA.NERRS:gndpcwq:1,2015-07-04T16:00:00Z,30.3486,-88.4185,0.0,29.7,2 
NERRS,ioos:station:NOAA.NERRS:gndpcwq:1,2015-07-04T17:00:00Z,30.3486,-88.4185,0.0,29.7,2 
NERRS,ioos:station:NOAA.NERRS:gndpcwq:1,2015-07-04T18:00:00Z,30.3486,-88.4185,0.0,30.3,2 
NERRS,ioos:station:NOAA.NERRS:gndpcwq:1,2015-07-04T19:00:00Z,30.3486,-88.4185,0.0,30.7,2 
NERRS,ioos:station:NOAA.NERRS:gndpcwq:1,2015-07-04T20:00:00Z,30.3486,-88.4185,0.0,31.1,2 
NERRS,ioos:station:NOAA.NERRS:gndpcwq:1,2015-07-04T21:00:00Z,30.3486,-88.4185,0.0,31.1,2 
NERRS,ioos:station:NOAA.NERRS:gndpcwq:1,2015-07-04T22:00:00Z,30.3486,-88.4185,0.0,31.2,2 
NERRS,ioos:station:NOAA.NERRS:gndpcwq:1,2015-07-04T23:00:00Z,30.3486,-88.4185,0.0,31.0,2 
NERRS,ioos:station:NOAA.NERRS:gndpcwq:1,2015-07-05T00:00:00Z,30.3486,-88.4185,0.0,31.0,2 
NERRS,ioos:station:NOAA.NERRS:gndpcwq:1,2015-07-05T01:00:00Z,30.3486,-88.4185,0.0,31.3,2 
NERRS,ioos:station:NOAA.NERRS:gndpcwq:1,2015-07-05T02:00:00Z,30.3486,-88.4185,0.0,30.8,2 
NERRS,ioos:station:NOAA.NERRS:gndpcwq:1,2015-07-05T03:00:00Z,30.3486,-88.4185,0.0,30.6,2 
NERRS,ioos:station:NOAA.NERRS:gndpcwq:1,2015-07-05T04:00:00Z,30.3486,-88.4185,0.0,30.6,2 
NERRS,ioos:station:NOAA.NERRS:gndpcwq:1,2015-07-05T05:00:00Z,30.3486,-88.4185,0.0,30.5,2 
NERRS,ioos:station:NOAA.NERRS:gndpcwq:1,2015-07-05T06:00:00Z,30.3486,-88.4185,0.0,30.2,2 
NERRS,ioos:station:NOAA.NERRS:gndpcwq:1,2015-07-05T07:00:00Z,30.3486,-88.4185,0.0,30.2,2 
NERRS,ioos:station:NOAA.NERRS:gndpcwq:1,2015-07-05T08:00:00Z,30.3486,-88.4185,0.0,30.2,2 
NERRS,ioos:station:NOAA.NERRS:gndpcwq:1,2015-07-05T09:00:00Z,30.3486,-88.4185,0.0,29.9,2 
NERRS,ioos:station:NOAA.NERRS:gndpcwq:1,2015-07-05T10:00:00Z,30.3486,-88.4185,0.0,29.7,2 
NERRS,ioos:station:NOAA.NERRS:gndpcwq:1,2015-07-05T11:00:00Z,30.3486,-88.4185,0.0,29.6,2 
NERRS,ioos:station:NOAA.NERRS:gndpcwq:1,2015-07-05T12:00:00Z,30.3486,-88.4185,0.0,29.6,2 
NERRS,ioos:station:NOAA.NERRS:gndpcwq:1,2015-07-05T13:00:00Z,30.3486,-88.4185,0.0,29.5,2 
NERRS,ioos:station:NOAA.NERRS:gndpcwq:1,2015-07-05T14:00:00Z,30.3486,-88.4185,0.0,29.3,2 
NERRS,ioos:station:NOAA.NERRS:gndpcwq:1,2015-07-05T15:00:00Z,30.3486,-88.4185,0.0,29.1,2 
NERRS,ioos:station:NOAA.NERRS:gndpcwq:1,2015-07-05T16:00:00Z,30.3486,-88.4185,0.0,28.9,2 
NERRS,ioos:station:NOAA.NERRS:gndpcwq:1,2015-07-05T17:00:00Z,30.3486,-88.4185,0.0,28.6,2 
NERRS,ioos:station:NOAA.NERRS:gndpcwq:1,2015-07-05T18:00:00Z,30.3486,-88.4185,0.0,28.5,2 
NERRS,ioos:station:NOAA.NERRS:gndpcwq:1,2015-07-05T19:00:00Z,30.3486,-88.4185,0.0,28.6,2 
NERRS,ioos:station:NOAA.NERRS:gndpcwq:1,2015-07-05T20:00:00Z,30.3486,-88.4185,0.0,28.3,2 
NERRS,ioos:station:NOAA.NERRS:gndpcwq:1,2015-07-05T21:00:00Z,30.3486,-88.4185,0.0,28.0,2 
NERRS,ioos:station:NOAA.NERRS:gndpcwq:1,2015-07-05T22:00:00Z,30.3486,-88.4185,0.0,27.8,2 
NERRS,ioos:station:NOAA.NERRS:gndpcwq:1,2015-07-05T23:00:00Z,30.3486,-88.4185,0.0,27.8,2 
NERRS,ioos:station:NOAA.NERRS:gndpcwq:1,2015-07-06T00:00:00Z,30.3486,-88.4185,0.0,27.7,2 
NERRS,ioos:station:NOAA.NERRS:gndpcwq:1,2015-07-06T01:00:00Z,30.3486,-88.4185,0.0,26.7,2 
NERRS,ioos:station:NOAA.NERRS:gndpcwq:1,2015-07-06T02:00:00Z,30.3486,-88.4185,0.0,27.1,2 
NERRS,ioos:station:NOAA.NERRS:gndpcwq:1,2015-07-06T03:00:00Z,30.3486,-88.4185,0.0,27.0,2 
NERRS,ioos:station:NOAA.NERRS:gndpcwq:1,2015-07-06T04:00:00Z,30.3486,-88.4185,0.0,27.1,2 
NERRS,ioos:station:NOAA.NERRS:gndpcwq:1,2015-07-06T05:00:00Z,30.3486,-88.4185,0.0,26.9,2 
NERRS,ioos:station:NOAA.NERRS:gndpcwq:1,2015-07-06T06:00:00Z,30.3486,-88.4185,0.0,26.9,2 
NERRS,ioos:station:NOAA.NERRS:gndpcwq:1,2015-07-06T07:00:00Z,30.3486,-88.4185,0.0,26.9,2 
NERRS,ioos:station:NOAA.NERRS:gndpcwq:1,2015-07-06T08:00:00Z,30.3486,-88.4185,0.0,26.9,2 
NERRS,ioos:station:NOAA.NERRS:gndpcwq:1,2015-07-06T09:00:00Z,30.3486,-88.4185,0.0,26.7,2 
NERRS,ioos:station:NOAA.NERRS:gndpcwq:1,2015-07-06T10:00:00Z,30.3486,-88.4185,0.0,26.6,2 
NERRS,ioos:station:NOAA.NERRS:gndpcwq:1,2015-07-06T11:00:00Z,30.3486,-88.4185,0.0,26.3,2 
NERRS,ioos:station:NOAA.NERRS:gndpcwq:1,2015-07-06T12:00:00Z,30.3486,-88.4185,0.0,26.2,2 
NERRS,ioos:station:NOAA.NERRS:gndpcwq:1,2015-07-06T13:00:00Z,30.3486,-88.4185,0.0,26.2,2 
NERRS,ioos:station:NOAA.NERRS:gndpcwq:1,2015-07-06T14:00:00Z,30.3486,-88.4185,0.0,26.3,2 
NERRS,ioos:station:NOAA.NERRS:gndpcwq:1,2015-07-06T15:00:00Z,30.3486,-88.4185,0.0,26.9,2 
NERRS,ioos:station:NOAA.NERRS:gndpcwq:1,2015-07-06T16:00:00Z,30.3486,-88.4185,0.0,27.0,2 
NERRS,ioos:station:NOAA.NERRS:gndpcwq:1,2015-07-06T17:00:00Z,30.3486,-88.4185,0.0,27.0,2 
NERRS,ioos:station:NOAA.NERRS:gndpcwq:1,2015-07-06T18:00:00Z,30.3486,-88.4185,0.0,27.0,2 
NERRS,ioos:station:NOAA.NERRS:gndpcwq:1,2015-07-06T19:00:00Z,30.3486,-88.4185,0.0,27.6,2 
NERRS,ioos:station:NOAA.NERRS:gndpcwq:1,2015-07-06T20:00:00Z,30.3486,-88.4185,0.0,27.7,2 
NERRS,ioos:station:NOAA.NERRS:gndpcwq:1,2015-07-06T21:00:00Z,30.3486,-88.4185,0.0,27.6,2 
NERRS,ioos:station:NOAA.NERRS:gndpcwq:1,2015-07-06T22:00:00Z,30.3486,-88.4185,0.0,27.6,2 
NERRS,ioos:station:NOAA.NERRS:gndpcwq:1,2015-07-06T23:00:00Z,30.3486,-88.4185,0.0,28.3,2 
NERRS,ioos:station:NOAA.NERRS:gndpcwq:1,2015-07-07T00:00:00Z,30.3486,-88.4185,0.0,28.3,2 
NERRS,ioos:station:NOAA.NERRS:gndpcwq:1,2015-07-07T01:00:00Z,30.3486,-88.4185,0.0,28.4,2 
NERRS,ioos:station:NOAA.NERRS:gndpcwq:1,2015-07-07T02:00:00Z,30.3486,-88.4185,0.0,28.4,2 
NERRS,ioos:station:NOAA.NERRS:gndpcwq:1,2015-07-07T03:00:00Z,30.3486,-88.4185,0.0,28.5,2 
NERRS,ioos:station:NOAA.NERRS:gndpcwq:1,2015-07-07T04:00:00Z,30.3486,-88.4185,0.0,28.7,2 
NERRS,ioos:station:NOAA.NERRS:gndpcwq:1,2015-07-07T05:00:00Z,30.3486,-88.4185,0.0,28.6,2 
NERRS,ioos:station:NOAA.NERRS:gndpcwq:1,2015-07-07T06:00:00Z,30.3486,-88.4185,0.0,28.5,2 
NERRS,ioos:station:NOAA.NERRS:gndpcwq:1,2015-07-07T07:00:00Z,30.3486,-88.4185,0.0,28.4,2 
NERRS,ioos:station:NOAA.NERRS:gndpcwq:1,2015-07-07T08:00:00Z,30.3486,-88.4185,0.0,28.4,2 
NERRS,ioos:station:NOAA.NERRS:gndpcwq:1,2015-07-07T14:00:00Z,30.3486,-88.4185,0.0,28.3,2 
NERRS,ioos:station:NOAA.NERRS:gndpcwq:1,2015-07-07T15:00:00Z,30.3486,-88.4185,0.0,28.5,2 
NERRS,ioos:station:NOAA.NERRS:gndpcwq:1,2015-07-07T17:00:00Z,30.3486,-88.4185,0.0,28.8,2 
NERRS,ioos:station:NOAA.NERRS:gndpcwq:1,2015-07-07T18:00:00Z,30.3486,-88.4185,0.0,29.1,2 
NERRS,ioos:station:NOAA.NERRS:gndpcwq:1,2015-07-07T19:00:00Z,30.3486,-88.4185,0.0,29.3,2 
NERRS,ioos:station:NOAA.NERRS:gndpcwq:1,2015-07-07T20:00:00Z,30.3486,-88.4185,0.0,29.7,2 
NERRS,ioos:station:NOAA.NERRS:gndpcwq:1,2015-07-07T21:00:00Z,30.3486,-88.4185,0.0,30.3,2 
NERRS,ioos:station:NOAA.NERRS:gndpcwq:1,2015-07-07T22:00:00Z,30.3486,-88.4185,0.0,30.7,2 
NERRS,ioos:station:NOAA.NERRS:gndpcwq:1,2015-07-07T23:00:00Z,30.3486,-88.4185,0.0,31.3,2 
NERRS,ioos:station:NOAA.NERRS:gndpcwq:1,2015-07-08T00:00:00Z,30.3486,-88.4185,0.0,31.4,2 
NERRS,ioos:station:NOAA.NERRS:gndpcwq:1,2015-07-08T01:00:00Z,30.3486,-88.4185,0.0,31.4,2 
NERRS,ioos:station:NOAA.NERRS:gndpcwq:1,2015-07-08T02:00:00Z,30.3486,-88.4185,0.0,31.3,2 
NERRS,ioos:station:NOAA.NERRS:gndpcwq:1,2015-07-08T03:00:00Z,30.3486,-88.4185,0.0,31.5,2 
NERRS,ioos:station:NOAA.NERRS:gndpcwq:1,2015-07-08T04:00:00Z,30.3486,-88.4185,0.0,31.3,2 
NERRS,ioos:station:NOAA.NERRS:gndpcwq:1,2015-07-08T05:00:00Z,30.3486,-88.4185,0.0,30.9,2 
NERRS,ioos:station:NOAA.NERRS:gndpcwq:1,2015-07-08T06:00:00Z,30.3486,-88.4185,0.0,30.4,2 
NERRS,ioos:station:NOAA.NERRS:gndpcwq:1,2015-07-08T07:00:00Z,30.3486,-88.4185,0.0,30.2,2 
NERRS,ioos:station:NOAA.NERRS:gndpcwq:1,2015-07-08T08:00:00Z,30.3486,-88.4185,0.0,30.0,2 
NERRS,ioos:station:NOAA.NERRS:gndpcwq:1,2015-07-08T09:00:00Z,30.3486,-88.4185,0.0,29.9,2 
NERRS,ioos:station:NOAA.NERRS:gndpcwq:1,2015-07-08T10:00:00Z,30.3486,-88.4185,0.0,29.7,2 
NERRS,ioos:station:NOAA.NERRS:gndpcwq:1,2015-07-08T11:00:00Z,30.3486,-88.4185,0.0,29.6,2 
NERRS,ioos:station:NOAA.NERRS:gndpcwq:1,2015-07-08T12:00:00Z,30.3486,-88.4185,0.0,29.6,2 
NERRS,ioos:station:NOAA.NERRS:gndpcwq:1,2015-07-08T13:00:00Z,30.3486,-88.4185,0.0,29.4,2 
NERRS,ioos:station:NOAA.NERRS:gndpcwq:1,2015-07-08T14:00:00Z,30.3486,-88.4185,0.0,29.4,2 
NERRS,ioos:station:NOAA.NERRS:gndpcwq:1,2015-07-08T15:00:00Z,30.3486,-88.4185,0.0,29.3,2 
NERRS,ioos:station:NOAA.NERRS:gndpcwq:1,2015-07-08T16:00:00Z,30.3486,-88.4185,0.0,29.5,2 
NERRS,ioos:station:NOAA.NERRS:gndpcwq:1,2015-07-08T17:00:00Z,30.3486,-88.4185,0.0,29.7,2 
NERRS,ioos:station:NOAA.NERRS:gndpcwq:1,2015-07-08T18:00:00Z,30.3486,-88.4185,0.0,29.9,2 
NERRS,ioos:station:NOAA.NERRS:gndpcwq:1,2015-07-08T19:00:00Z,30.3486,-88.4185,0.0,29.9,2 
NERRS,ioos:station:NOAA.NERRS:gndpcwq:1,2015-07-08T20:00:00Z,30.3486,-88.4185,0.0,30.0,2 
NERRS,ioos:station:NOAA.NERRS:gndpcwq:1,2015-07-08T21:00:00Z,30.3486,-88.4185,0.0,30.2,2 
NERRS,ioos:station:NOAA.NERRS:gndpcwq:1,2015-07-08T22:00:00Z,30.3486,-88.4185,0.0,30.2,2 
NERRS,ioos:station:NOAA.NERRS:gndpcwq:1,2015-07-08T23:00:00Z,30.3486,-88.4185,0.0,30.3,2 
NERRS,ioos:station:NOAA.NERRS:gndpcwq:1,2015-07-09T00:00:00Z,30.3486,-88.4185,0.0,30.6,2 
NERRS,ioos:station:NOAA.NERRS:gndpcwq:1,2015-07-09T01:00:00Z,30.3486,-88.4185,0.0,31.5,2 
NERRS,ioos:station:NOAA.NERRS:gndpcwq:1,2015-07-09T02:00:00Z,30.3486,-88.4185,0.0,31.4,2 
NERRS,ioos:station:NOAA.NERRS:gndpcwq:1,2015-07-09T03:00:00Z,30.3486,-88.4185,0.0,31.3,2 
NERRS,ioos:station:NOAA.NERRS:gndpcwq:1,2015-07-09T04:00:00Z,30.3486,-88.4185,0.0,31.2,2 
NERRS,ioos:station:NOAA.NERRS:gndpcwq:1,2015-07-09T05:00:00Z,30.3486,-88.4185,0.0,31.2,2 
NERRS,ioos:station:NOAA.NERRS:gndpcwq:1,2015-07-09T06:00:00Z,30.3486,-88.4185,0.0,31.0,2 
NERRS,ioos:station:NOAA.NERRS:gndpcwq:1,2015-07-09T07:00:00Z,30.3486,-88.4185,0.0,30.7,2 
NERRS,ioos:station:NOAA.NERRS:gndpcwq:1,2015-07-09T08:00:00Z,30.3486,-88.4185,0.0,30.5,2 
NERRS,ioos:station:NOAA.NERRS:gndpcwq:1,2015-07-09T09:00:00Z,30.3486,-88.4185,0.0,30.4,2 
NERRS,ioos:station:NOAA.NERRS:gndpcwq:1,2015-07-09T10:00:00Z,30.3486,-88.4185,0.0,30.5,2 
NERRS,ioos:station:NOAA.NERRS:gndpcwq:1,2015-07-09T11:00:00Z,30.3486,-88.4185,0.0,30.5,2 
NERRS,ioos:station:NOAA.NERRS:gndpcwq:1,2015-07-09T15:00:00Z,30.3486,-88.4185,0.0,30.8,2 
NERRS,ioos:station:NOAA.NERRS:gndpcwq:1,2015-07-09T16:00:00Z,30.3486,-88.4185,0.0,30.9,2 
NERRS,ioos:station:NOAA.NERRS:gndpcwq:1,2015-07-09T17:00:00Z,30.3486,-88.4185,0.0,31.0,2 
NERRS,ioos:station:NOAA.NERRS:gndpcwq:1,2015-07-09T19:00:00Z,30.3486,-88.4185,0.0,31.3,2 
NERRS,ioos:station:NOAA.NERRS:gndpcwq:1,2015-07-09T20:00:00Z,30.3486,-88.4185,0.0,31.6,2 
NERRS,ioos:station:NOAA.NERRS:gndpcwq:1,2015-07-09T21:00:00Z,30.3486,-88.4185,0.0,32.1,2 
NERRS,ioos:station:NOAA.NERRS:gndpcwq:1,2015-07-09T22:00:00Z,30.3486,-88.4185,0.0,32.4,2 
NERRS,ioos:station:NOAA.NERRS:gndpcwq:1,2015-07-09T23:00:00Z,30.3486,-88.4185,0.0,32.3,2 
NERRS,ioos:station:NOAA.NERRS:gndpcwq:1,2015-07-10T00:00:00Z,30.3486,-88.4185,0.0,32.1,2 
NERRS,ioos:station:NOAA.NERRS:gndpcwq:1,2015-07-10T01:00:00Z,30.3486,-88.4185,0.0,31.9,2 
NERRS,ioos:station:NOAA.NERRS:gndpcwq:1,2015-07-10T02:00:00Z,30.3486,-88.4185,0.0,31.7,2 
NERRS,ioos:station:NOAA.NERRS:gndpcwq:1,2015-07-10T03:00:00Z,30.3486,-88.4185,0.0,31.6,2 
NERRS,ioos:station:NOAA.NERRS:gndpcwq:1,2015-07-10T04:00:00Z,30.3486,-88.4185,0.0,31.5,2 
NERRS,ioos:station:NOAA.NERRS:gndpcwq:1,2015-07-10T05:00:00Z,30.3486,-88.4185,0.0,31.8,2 
NERRS,ioos:station:NOAA.NERRS:gndpcwq:1,2015-07-10T06:00:00Z,30.3486,-88.4185,0.0,31.6,2 
NERRS,ioos:station:NOAA.NERRS:gndpcwq:1,2015-07-10T07:00:00Z,30.3486,-88.4185,0.0,31.4,2 
NERRS,ioos:station:NOAA.NERRS:gndpcwq:1,2015-07-10T08:00:00Z,30.3486,-88.4185,0.0,31.2,2 
NERRS,ioos:station:NOAA.NERRS:gndpcwq:1,2015-07-10T09:00:00Z,30.3486,-88.4185,0.0,31.0,2 
NERRS,ioos:station:NOAA.NERRS:gndpcwq:1,2015-07-10T10:00:00Z,30.3486,-88.4185,0.0,30.9,2 
NERRS,ioos:station:NOAA.NERRS:gndpcwq:1,2015-07-10T11:00:00Z,30.3486,-88.4185,0.0,30.9,2 
NERRS,ioos:station:NOAA.NERRS:gndpcwq:1,2015-07-10T12:00:00Z,30.3486,-88.4185,0.0,30.8,2 
NERRS,ioos:station:NOAA.NERRS:gndpcwq:1,2015-07-10T13:00:00Z,30.3486,-88.4185,0.0,30.9,2 
NERRS,ioos:station:NOAA.NERRS:gndpcwq:1,2015-07-10T14:00:00Z,30.3486,-88.4185,0.0,31.0,2 
NERRS,ioos:station:NOAA.NERRS:gndpcwq:1,2015-07-10T17:00:00Z,30.3486,-88.4185,0.0,31.1,2 
NERRS,ioos:station:NOAA.NERRS:gndpcwq:1,2015-07-10T18:00:00Z,30.3486,-88.4185,0.0,31.2,2 
NERRS,ioos:station:NOAA.NERRS:gndpcwq:1,2015-07-10T19:00:00Z,30.3486,-88.4185,0.0,31.4,2 
NERRS,ioos:station:NOAA.NERRS:gndpcwq:1,2015-07-10T20:00:00Z,30.3486,-88.4185,0.0,31.6,2 
NERRS,ioos:station:NOAA.NERRS:gndpcwq:1,2015-07-10T21:00:00Z,30.3486,-88.4185,0.0,31.9,2 
NERRS,ioos:station:NOAA.NERRS:gndpcwq:1,2015-07-10T22:00:00Z,30.3486,-88.4185,0.0,32.3,2 
NERRS,ioos:station:NOAA.NERRS:gndpcwq:1,2015-07-10T23:00:00Z,30.3486,-88.4185,0.0,32.2,2 
NERRS,ioos:station:NOAA.NERRS:gndpcwq:1,2015-07-11T00:00:00Z,30.3486,-88.4185,0.0,32.1,2 
NERRS,ioos:station:NOAA.NERRS:gndpcwq:1,2015-07-11T01:00:00Z,30.3486,-88.4185,0.0,32.0,2 
NERRS,ioos:station:NOAA.NERRS:gndpcwq:1,2015-07-11T02:00:00Z,30.3486,-88.4185,0.0,32.1,2 
NERRS,ioos:station:NOAA.NERRS:gndpcwq:1,2015-07-11T03:00:00Z,30.3486,-88.4185,0.0,31.8,2 
NERRS,ioos:station:NOAA.NERRS:gndpcwq:1,2015-07-11T04:00:00Z,30.3486,-88.4185,0.0,31.8,2 
NERRS,ioos:station:NOAA.NERRS:gndpcwq:1,2015-07-11T05:00:00Z,30.3486,-88.4185,0.0,31.6,2 
NERRS,ioos:station:NOAA.NERRS:gndpcwq:1,2015-07-11T06:00:00Z,30.3486,-88.4185,0.0,31.7,2 
NERRS,ioos:station:NOAA.NERRS:gndpcwq:1,2015-07-11T07:00:00Z,30.3486,-88.4185,0.0,31.5,2 
NERRS,ioos:station:NOAA.NERRS:gndpcwq:1,2015-07-11T08:00:00Z,30.3486,-88.4185,0.0,31.4,2 
NERRS,ioos:station:NOAA.NERRS:gndpcwq:1,2015-07-11T09:00:00Z,30.3486,-88.4185,0.0,31.3,2 
NERRS,ioos:station:NOAA.NERRS:gndpcwq:1,2015-07-11T10:00:00Z,30.3486,-88.4185,0.0,31.2,2 
NERRS,ioos:station:NOAA.NERRS:gndpcwq:1,2015-07-11T11:00:00Z,30.3486,-88.4185,0.0,31.1,2 
NERRS,ioos:station:NOAA.NERRS:gndpcwq:1,2015-07-11T12:00:00Z,30.3486,-88.4185,0.0,31.0,2 
NERRS,ioos:station:NOAA.NERRS:gndpcwq:1,2015-07-11T13:00:00Z,30.3486,-88.4185,0.0,31.0,2 
NERRS,ioos:station:NOAA.NERRS:gndpcwq:1,2015-07-11T14:00:00Z,30.3486,-88.4185,0.0,31.1,2 
NERRS,ioos:station:NOAA.NERRS:gndpcwq:1,2015-07-11T15:00:00Z,30.3486,-88.4185,0.0,31.3,2 
NERRS,ioos:station:NOAA.NERRS:gndpcwq:1,2015-07-11T16:00:00Z,30.3486,-88.4185,0.0,31.4,2 
NERRS,ioos:station:NOAA.NERRS:gndpcwq:1,2015-07-11T17:00:00Z,30.3486,-88.4185,0.0,31.4,2 
NERRS,ioos:station:NOAA.NERRS:gndpcwq:1,2015-07-11T18:00:00Z,30.3486,-88.4185,0.0,31.9,2 
NERRS,ioos:station:NOAA.NERRS:gndpcwq:1,2015-07-11T19:00:00Z,30.3486,-88.4185,0.0,32.2,2 
NERRS,ioos:station:NOAA.NERRS:gndpcwq:1,2015-07-11T20:00:00Z,30.3486,-88.4185,0.0,33.0,2 
NERRS,ioos:station:NOAA.NERRS:gndpcwq:1,2015-07-11T21:00:00Z,30.3486,-88.4185,0.0,33.5,2 
 
DISCLAIMER: The Gulf of Mexico Coastal and Ocean Observing (GCOOS) Data Portal aggregates data from the regional data providers for the convenience of all data users. Data published on this website should not be used for navigation or certain other uses as we cannot guarantee data accuracy or availability. The data and delivery services are provided 'as is' without warranty of any kind. Data Source: Gulf of Mexico Coastal Ocean Observing System Data Portal (http://data.gcoos.org/) 
